Hagerstown, MD

3:39 PM EST on December 06, 2019 (GMT -0500)
Hagerstown Regional-Henson

Weather History for KHGR - November, 2019

Change the Weather History Date:

Wednesday, November 13, 2019

  Actual Average Record
Temperature  
Mean Temperature 28 °F 46 °F  
Max Temperature 35 °F 55 °F 66 °F (2005)
Min Temperature 21 °F 37 °F 21 °F (2019)
Degree Days  
Heating Degree Days 37 19  
Month to date heating degree days 287 221  
Since 1 July heating degree days 506 623  
Cooling Degree Days 0 0  
Month to date cooling degree days 0 0  
Year to date cooling degree days 1473 969  
Moisture  
Dew Point 11 °F    
Average Humidity 52    
Maximum Humidity 68    
Minimum Humidity 35    
Precipitation  
Precipitation 0.00 in 0.09 in 0.70 in (2008)
Month to date precipitation 0.34 1.28  
Year to date precipitation 34.44 34.46  
Sea Level Pressure  
Sea Level Pressure 30.41 in    
Wind  
Wind Speed 6 mph (WSW)    
Max Wind Speed 14 mph    
Max Gust Speed 19 mph    
Visibility 10 miles    
Events      
T = Trace of Precipitation, MM = Missing Value Source: NWS Daily Summary

Daily Weather History Graph

Daily Weather History Graph

Search for Another Location

Airport or City:

Astronomy

Nov. 13, 2019 Rise Set
Actual Time 6:52 AM EST 4:57 PM EST
Civil Twilight 6:24 AM EST 5:25 PM EST
Nautical Twilight 5:51 AM EST 5:58 PM EST
Astronomical Twilight 5:19 AM EST 6:30 PM EST
Moon 5:59 PM EST (11/13) 7:44 AM EST (11/13)
Length of Visible Light 11h 01m
Length of Day
10h 04m
Full, 99% of the Moon is Illuminated
Nov 13
Full
Nov 19
Last Quarter
Nov 26
New
Dec 4
First Quarter
Dec 12
Full

Hourly Weather History & Observations

Time (EST) Temp. Windchill Dew Point Humidity Pressure Visibility Wind Dir Wind Speed Gust Speed Precip Events Conditions
12:53 AM 21.9 °F 13.4 °F 10.0 °F 60% 30.34 in 10.0 mi NW 6.9 mph - N/A   Clear
1:53 AM 21.0 °F 11.4 °F 10.9 °F 65% 30.35 in 10.0 mi WNW 8.1 mph - N/A   Clear
2:53 AM 21.0 °F 11.4 °F 10.9 °F 65% 30.36 in 10.0 mi NW 8.1 mph - N/A   Clear
3:53 AM 21.9 °F 11.7 °F 12.0 °F 66% 30.36 in 10.0 mi WNW 9.2 mph - N/A   Clear
4:53 AM 21.9 °F 11.7 °F 10.9 °F 63% 30.39 in 10.0 mi WNW 9.2 mph - N/A   Clear
5:53 AM 21.0 °F - 10.0 °F 63% 30.40 in 10.0 mi Calm Calm - N/A   Clear
6:53 AM 21.0 °F 14.6 °F 10.0 °F 63% 30.43 in 10.0 mi West 4.6 mph - N/A   Clear
8:53 AM 25.0 °F 18.1 °F 12.0 °F 58% 30.46 in 10.0 mi NW 5.8 mph - N/A   Clear
9:53 AM 27.0 °F 18.7 °F 12.0 °F 53% 30.48 in 10.0 mi WNW 8.1 mph - N/A   Partly Cloudy
10:53 AM 30.0 °F 21.1 °F 12.0 °F 47% 30.48 in 10.0 mi WNW 10.4 mph - N/A   Partly Cloudy
11:53 AM 32.0 °F 24.2 °F 12.0 °F 44% 30.46 in 10.0 mi NNW 9.2 mph 17.3 mph N/A   Partly Cloudy
12:53 PM 33.1 °F 26.9 °F 10.9 °F 40% 30.43 in 10.0 mi Variable 6.9 mph - N/A   Clear
1:53 PM 34.0 °F - 12.0 °F 40% 30.42 in 10.0 mi Calm Calm - N/A   Clear
2:53 PM 35.1 °F - 10.9 °F 37% 30.40 in 10.0 mi Calm Calm - N/A   Clear
3:53 PM 33.1 °F - 10.0 °F 38% 30.41 in 10.0 mi Calm Calm - N/A   Clear
4:53 PM 33.1 °F - 10.0 °F 38% 30.41 in 10.0 mi Calm Calm - N/A   Clear
5:53 PM 30.9 °F 27.5 °F 12.0 °F 46% 30.43 in 10.0 mi SSE 3.5 mph - N/A   Clear
6:53 PM 30.0 °F 25.2 °F 12.0 °F 47% 30.42 in 10.0 mi SSE 4.6 mph - N/A   Clear
7:53 PM 28.9 °F 23.9 °F 12.9 °F 51% 30.42 in 10.0 mi SE 4.6 mph - N/A   Clear
8:53 PM 30.0 °F 25.2 °F 14.0 °F 51% 30.42 in 10.0 mi SSE 4.6 mph - N/A   Clear
9:53 PM 30.0 °F 24.1 °F 12.9 °F 49% 30.42 in 10.0 mi SE 5.8 mph - N/A   Clear
10:53 PM 28.9 °F 20.4 °F 12.0 °F 49% 30.41 in 10.0 mi SSE 9.2 mph - N/A   Clear
11:53 PM 30.0 °F 21.1 °F 12.0 °F 47% 30.40 in 10.0 mi SSE 10.4 mph - N/A   Clear